This is the latest recevied weather packets stored in our database for station/object 9W2CHF-3. If no packets are shown the sender has not sent any weather packets the latest 10 day(s).
| Time | Temp. | Humidity | Pressure | Rain* | Wind** | Luminosity | Snow |
|---|---|---|---|---|---|---|---|
| 1777000004 | 37.22° C | 62% | 1010.6 hPa | - | - | - | - |
| 1776998804 | 36.11° C | 65% | 1010.7 hPa | - | - | - | - |
| 1776997604 | 34.44° C | 75% | 1011 hPa | - | - | - | - |
| 1776996404 | 37.22° C | 62% | 1010.8 hPa | - | - | - | - |
| 1776995204 | 36.11° C | 66% | 1010.6 hPa | - | - | - | - |
| 1776994004 | 35.56° C | 66% | 1010.5 hPa | - | - | - | - |
| 1776992865 | 35.56° C | 68% | 1010.4 hPa | - | - | - | - |
| 1776991603 | 34.44° C | 72% | 1010.3 hPa | - | - | - | - |
| 1776990403 | 34.44° C | 72% | 1009.7 hPa | - | - | - | - |
| 1776989203 | 34.44° C | 73% | 1009.5 hPa | - | - | - | - |
| 1776988003 | 33.33° C | 78% | 1009.2 hPa | - | - | - | - |
| 1776986802 | 30.56° C | 97% | 1009 hPa | - | - | - | - |
| 1776985602 | 30.56° C | 97% | 1008.7 hPa | - | - | - | - |
| 1776984402 | 30.56° C | 96% | 1008.5 hPa | - | - | - | - |
| 1776983201 | 30° C | 98% | 1008.4 hPa | - | - | - | - |
| 1776982001 | 30° C | 99% | 1008.2 hPa | - | - | - | - |
| 1776980801 | 30.56° C | 97% | 1008.2 hPa | - | - | - | - |
| 1776979601 | 30.56° C | 98% | 1008.1 hPa | - | - | - | - |
| 1776978401 | 30.56° C | 96% | 1008 hPa | - | - | - | - |
| 1776977201 | 30.56° C | 96% | 1007.9 hPa | - | - | - | - |
| 1776976001 | 31.11° C | 96% | 1007.9 hPa | - | - | - | - |
| 1776974801 | 30.56° C | 95% | 1007.8 hPa | - | - | - | - |
| 1776973600 | 31.11° C | 95% | 1007.9 hPa | - | - | - | - |
| 1776972400 | 31.11° C | 98% | 1007.8 hPa | - | - | - | - |
| 1776971200 | 31.11° C | 95% | 1007.8 hPa | - | - | - | - |
* Rain since midnight (hover to see other rain measurements)
** Current wind speed in m/s (hover to see current wind gust speed)